DW9330 Weather Reports


time (UTC)temp
C
wind
direction
speed
KPH
gust
KPH
rain 1hr
cm
rain 24hr
cm
rain mn
cm
humidity
%
barometer
mb
20260507075522 10 32 0.0 3.2 0.00 0.71 0.28 93 1010.5
20260507075022 10 32 0.0 1.6 0.00 0.71 0.28 93 1010.5
20260507074522 10 32 0.0 4.8 0.00 0.71 0.28 93 1010.5
20260507074021 10 32 0.0 4.8 0.00 0.71 0.28 93 1010.5
20260507073520 10 32 0.0 4.8 0.00 0.71 0.28 93 1010.6
20260507073020 10 32 0.0 4.8 0.00 0.71 0.28 93 1010.7
20260507072520 10 30 0.0 1.6 0.00 0.71 0.28 94 1010.7
20260507072019 10 30 0.0 1.6 0.00 0.71 0.28 94 1010.8
20260507071524 10 30 0.0 0.0 0.00 0.71 0.28 93 1010.8
20260507071019 10 30 0.0 0.0 0.00 0.71 0.28 93 1010.7
20260507070518 10 30 0.0 0.0 0.00 0.71 0.28 93 1010.9
20260507070018 10 30 0.0 0.0 0.00 0.71 0.28 93 1010.8
20260507065518 10 30 0.0 0.0 0.00 0.71 0.28 93 1010.8
20260507065018 10 30 0.0 0.0 0.00 0.71 0.28 93 1010.8
20260507064518 10 30 0.0 0.0 0.00 0.71 0.28 93 1010.6
20260507064019 10 30 0.0 0.0 0.03 0.71 0.28 92 1010.7
20260507063519 10 30 0.0 0.0 0.03 0.71 0.28 92 1010.6
20260507063018 10 30 0.0 0.0 0.03 0.71 0.28 92 1010.8
20260507062517 10 30 0.0 0.0 0.03 0.71 0.28 92 1010.7
20260507062017 10 30 0.0 0.0 0.03 0.71 0.28 92 1010.8
20260507061518 10 30 0.0 0.0 0.05 0.71 0.28 92 1010.8
20260507061017 10 30 0.0 0.0 0.05 0.71 0.28 92 1010.9
20260507060517 10 30 0.0 0.0 0.08 0.71 0.28 92 1010.8
20260507060020 10 30 0.0 0.0 0.08 0.71 0.28 91 1010.8
20260507055516 10 30 0.0 0.0 0.10 0.71 0.28 91 1010.8
20260507055016 10 30 0.0 0.0 0.10 0.71 0.28 91 1010.8
20260507054516 10 30 0.0 0.0 0.08 0.71 0.25 91 1010.7
20260507054019 10 30 0.0 1.6 0.08 0.71 0.25 90 1010.5
20260507053515 10 30 0.0 4.8 0.08 0.71 0.25 90 1010.6
20260507053015 10 30 0.0 6.4 0.08 0.71 0.25 90 1010.7
20260507052514 10 30 0.0 9.7 0.08 0.71 0.25 89 1010.8
20260507052014 10 25 1.6 9.7 0.10 0.71 0.25 89 1010.7
20260507051513 11 48 3.2 11.3 0.13 0.69 0.23 88 1010.8
20260507051011 11 40 6.4 12.9 0.15 0.69 0.23 88 1010.8
20260507050509 11 9 4.8 12.9 0.15 0.66 0.20 88 1010.8
20260507050028 11 30 1.6 9.7 0.18 0.66 0.20 89 1010.8
20260507045511 11 45 0.0 6.4 0.18 0.64 0.18 90 1010.8
20260507045007 12 40 0.0 4.8 0.18 0.64 0.18 90 1010.8
20260507044506 12 40 0.0 3.2 0.18 0.64 0.18 90 1010.8
20260507044005 12 40 0.0 3.2 0.20 0.64 0.18 90 1010.4
20260507043506 12 40 0.0 3.2 0.20 0.64 0.18 89 1010.6
20260507043004 12 40 0.0 4.8 0.20 0.64 0.18 88 1010.5
20260507042504 12 40 0.0 6.4 0.20 0.64 0.18 88 1010.6
20260507042002 12 40 1.6 6.4 0.18 0.61 0.15 88 1010.5
20260507041611 12 46 0.0 4.8 0.13 0.56 0.10 87 1010.5
20260507041103 12 46 1.6 4.8 0.10 0.53 0.08 86 1010.1
20260507040558 13 46 0.0 8.0 0.08 0.51 0.05 86 1010.3
20260507040057 13 46 0.0 8.0 0.05 0.48 0.03 85 1010.2
20260507035557 13 66 0.0 4.8 0.03 0.46 0.46 84 1010.1
20260507035056 13 66 1.6 4.8 0.03 0.46 0.46 83 1010.1
20260507034600 13 69 0.0 4.8 0.03 0.46 0.46 82 1009.9
20260507034054 13 69 0.0 4.8 0.00 0.43 0.43 81 1010.2
20260507033553 13 64 0.0 4.8 0.00 0.43 0.43 80 1010.3
20260507033055 13 38 1.6 6.4 0.00 0.43 0.43 80 1010.1
20260507032557 13 360 0.0 3.2 0.00 0.43 0.43 79 1010.1
20260507032058 13 360 0.0 8.0 0.00 0.43 0.43 79 1010.0
20260507031552 14 360 1.6 9.7 0.00 0.43 0.43 80 1010.1
20260507031051 14 360 3.2 8.0 0.00 0.43 0.43 80 1010.0
20260507030549 14 360 0.0 8.0 0.00 0.43 0.43 80 1009.8
20260507030049 14 360 0.0 8.0 0.00 0.43 0.43 79 1009.6
20260507025547 14 360 0.0 9.7 0.00 0.43 0.43 79 1009.5
20260507025048 14 360 1.6 9.7 0.00 0.43 0.43 79 1009.7
20260507024552 14 360 0.0 14.5 0.00 0.43 0.43 79 1010.0
20260507024048 14 360 4.8 14.5 0.00 0.43 0.43 78 1009.9
20260507023546 14 360 1.6 8.0 0.00 0.43 0.43 79 1009.9
20260507023046 15 360 1.6 6.4 0.00 0.43 0.43 80 1009.5
20260507022546 15 360 1.6 6.4 0.00 0.43 0.43 80 1009.7
20260507022045 15 360 0.0 6.4 0.00 0.43 0.43 81 1009.6
20260507021557 15 360 1.6 6.4 0.00 0.43 0.43 80 1009.7
20260507021043 15 360 0.0 6.4 0.00 0.43 0.43 80 1009.6
20260507020543 15 360 1.6 8.0 0.00 0.43 0.43 80 1009.5
20260507020059 15 360 3.2 9.7 0.00 0.43 0.43 81 1009.8
20260507015543 15 360 1.6 9.7 0.00 0.43 0.43 81 1009.6
20260507015041 15 360 1.6 9.7 0.00 0.43 0.43 82 1009.6
20260507014556 15 360 1.6 6.4 0.00 0.43 0.43 82 1009.4
20260507014040 15 360 0.0 3.2 0.00 0.43 0.43 82 1009.6
20260507013540 16 360 0.0 3.2 0.00 0.43 0.43 82 1009.6
20260507013046 16 360 0.0 1.6 0.00 0.43 0.43 82 1009.7
20260507012539 16 360 0.0 3.2 0.00 0.43 0.43 81 1009.7
20260507012040 16 360 0.0 3.2 0.00 0.43 0.43 81 1009.7
20260507011544 16 360 0.0 3.2 0.00 0.43 0.43 81 1009.8
20260507011038 16 360 0.0 3.2 0.00 0.43 0.43 81 1009.9
20260507010539 16 360 0.0 4.8 0.00 0.43 0.43 81 1009.4
20260507010044 16 360 0.0 4.8 0.00 0.43 0.43 82 1009.6
20260507005537 16 360 1.6 4.8 0.00 0.43 0.43 82 1009.6
20260507005035 17 360 0.0 3.2 0.00 0.43 0.43 84 1009.5
20260507004536 17 360 0.0 3.2 0.00 0.43 0.43 86 1009.3
20260507004035 17 360 0.0 3.2 0.00 0.43 0.43 87 1009.1
20260507003535 17 360 0.0 3.2 0.00 0.43 0.43 87 1009.1
20260507003034 17 360 0.0 6.4 0.00 0.43 0.43 87 1008.9
20260507002534 17 360 1.6 6.4 0.00 0.43 0.43 87 1009.0
20260507002033 17 360 0.0 3.2 0.00 0.43 0.43 87 1009.0
20260507001552 17 360 0.0 1.6 0.00 0.43 0.43 87 1008.7
20260507001032 18 360 0.0 1.6 0.00 0.43 0.43 87 1008.6
20260507000534 18 360 0.0 0.0 0.00 0.43 0.43 87 1008.4
20260507000038 18 360 0.0 0.0 0.00 0.43 0.43 87 1008.2
20260506235532 18 360 0.0 1.6 0.00 0.43 0.43 86 1008.0
20260506235032 18 360 0.0 1.6 0.00 0.43 0.43 86 1008.0
20260506234536 18 227 0.0 1.6 0.00 0.43 0.43 86 1007.9
20260506234032 18 227 0.0 4.8 0.00 0.43 0.43 85 1007.9
20260506233532 18 227 0.0 11.3 0.00 0.43 0.43 85 1007.9
20260506233033 18 205 1.6 8.0 0.00 0.43 0.43 86 1007.6
20260506232531 18 217 1.6 4.8 0.00 0.43 0.43 85 1007.5
20260506232031 18 200 0.0 3.2 0.00 0.43 0.43 85 1007.6
20260506231534 18 201 0.0 1.6 0.00 0.43 0.43 85 1007.6
20260506231032 18 199 0.0 3.2 0.00 0.43 0.43 85 1007.6
20260506230531 18 207 0.0 4.8 0.00 0.43 0.43 85 1007.6
20260506230032 18 208 0.0 4.8 0.00 0.43 0.43 85 1007.6
20260506225530 18 203 0.0 3.2 0.00 0.43 0.43 84 1007.5
20260506225030 18 201 0.0 9.7 0.00 0.43 0.43 84 1007.4
20260506224532 18 201 0.0 9.7 0.00 0.43 0.43 84 1007.4
20260506224030 18 207 1.6 8.0 0.00 0.43 0.43 84 1007.5
20260506223530 18 250 1.6 11.3 0.00 0.43 0.43 83 1007.5
20260506223030 19 252 1.6 11.3 0.00 0.43 0.43 83 1007.5
20260506222530 19 199 3.2 9.7 0.00 0.43 0.43 83 1007.4
20260506222033 19 198 3.2 9.7 0.00 0.43 0.43 82 1007.3
20260506221530 19 207 3.2 9.7 0.00 0.43 0.43 82 1007.3
20260506221029 19 195 3.2 9.7 0.00 0.43 0.43 82 1007.3
20260506220529 19 209 4.8 9.7 0.00 0.43 0.43 82 1007.3
20260506220031 19 211 1.6 12.9 0.00 0.43 0.43 82 1007.2
20260506215528 19 258 3.2 12.9 0.00 0.43 0.43 82 1007.3
20260506215028 19 294 1.6 9.7 0.00 0.43 0.43 82 1007.2
20260506214529 19 215 1.6 9.7 0.00 0.43 0.43 82 1007.1
20260506214029 19 209 1.6 9.7 0.00 0.43 0.43 82 1006.8
20260506213529 19 200 1.6 4.8 0.00 0.43 0.43 82 1007.0
20260506213032 19 196 0.0 3.2 0.00 0.43 0.43 82 1006.8
20260506212528 19 196 0.0 6.4 0.00 0.43 0.43 81 1006.9
20260506212030 19 196 0.0 11.3 0.00 0.43 0.43 81 1006.9
20260506211539 20 227 3.2 11.3 0.00 0.43 0.43 80 1006.8
20260506211027 20 234 1.6 12.9 0.00 0.43 0.43 80 1006.8
20260506210527 20 232 3.2 12.9 0.00 0.43 0.43 81 1006.5
20260506210034 20 202 1.6 9.7 0.00 0.43 0.43 81 1006.5
20260506205527 20 205 1.6 11.3 0.00 0.43 0.43 81 1006.5
20260506205027 20 205 3.2 11.3 0.00 0.43 0.43 81 1006.5
20260506204532 20 209 3.2 16.1 0.00 0.43 0.43 81 1006.5
20260506204026 20 204 4.8 14.5 0.00 0.43 0.43 81 1006.4
20260506203526 20 218 0.0 6.4 0.00 0.43 0.43 82 1006.4
20260506203026 20 219 0.0 6.4 0.00 0.43 0.43 83 1006.4
20260506202526 19 232 1.6 4.8 0.00 0.43 0.43 85 1006.5
20260506202025 19 231 0.0 4.8 0.00 0.43 0.43 84 1006.7
20260506201534 19 232 1.6 4.8 0.00 0.43 0.43 83 1006.6
20260506201024 18 245 0.0 4.8 0.00 0.43 0.43 85 1006.7
20260506200524 18 246 0.0 3.2 0.00 0.43 0.43 86 1006.6
20260506200029 18 244 0.0 3.2 0.00 0.43 0.43 86 1006.5
20260506195524 18 243 0.0 4.8 0.00 0.43 0.43 87 1006.5
20260506195023 18 243 0.0 4.8 0.00 0.43 0.43 86 1006.5
20260506194525 18 242 0.0 4.8 0.00 0.43 0.43 86 1006.6
20260506194024 18 242 0.0 3.2 0.00 0.43 0.43 86 1006.6
20260506193522 18 244 0.0 6.4 0.00 0.43 0.43 86 1006.7
20260506193033 18 254 1.6 6.4 0.00 0.43 0.43 85 1006.6
20260506192521 18 256 1.6 8.0 0.00 0.43 0.43 85 1006.8
20260506192021 18 210 1.6 11.3 0.00 0.43 0.43 85 1006.8
20260506191521 18 254 3.2 11.3 0.00 0.43 0.43 85 1006.8
20260506191021 18 217 1.6 11.3 0.00 0.43 0.43 86 1006.9
20260506190522 18 198 3.2 11.3 0.00 0.43 0.43 86 1006.8
20260506190021 18 196 3.2 9.7 0.00 0.43 0.43 86 1006.8
20260506185520 18 194 3.2 8.0 0.00 0.43 0.43 86 1006.8
20260506185020 17 220 1.6 8.0 0.00 0.43 0.43 86 1006.9
20260506184520 17 273 3.2 8.0 0.00 0.43 0.43 86 1006.9
20260506184020 17 198 3.2 9.7 0.00 0.43 0.43 87 1007.0
20260506183520 17 250 3.2 11.3 0.00 0.43 0.43 87 1007.0
20260506183020 17 205 3.2 11.3 0.00 0.43 0.43 87 1007.0
20260506182519 17 154 3.2 8.0 0.00 0.43 0.43 87 1007.0
20260506182022 17 360 1.6 9.7 0.00 0.43 0.43 87 1007.0
20260506181534 17 183 3.2 11.3 0.00 0.43 0.43 87 1007.2
20260506181019 17 186 3.2 12.9 0.00 0.43 0.43 88 1007.1
20260506180519 17 206 1.6 12.9 0.00 0.43 0.43 88 1007.2
20260506180019 17 186 3.2 12.9 0.00 0.43 0.43 88 1007.3
20260506175521 17 194 3.2 9.7 0.00 0.43 0.43 88 1007.3
20260506175017 17 197 3.2 9.7 0.00 0.43 0.43 89 1007.3
20260506174518 17 360 3.2 9.7 0.00 0.43 0.43 90 1007.4
20260506174021 16 360 3.2 9.7 0.00 0.43 0.43 90 1007.3
20260506173520 16 360 1.6 12.9 0.00 0.43 0.43 90 1007.3
20260506173021 16 208 4.8 12.9 0.00 0.43 0.43 90 1007.3
20260506172517 16 360 3.2 11.3 0.00 0.43 0.43 91 1007.3
20260506172017 16 360 3.2 11.3 0.00 0.43 0.43 90 1007.3
20260506171520 16 360 3.2 11.3 0.00 0.43 0.43 90 1007.2
20260506171019 16 360 1.6 12.9 0.00 0.43 0.43 91 1007.3
20260506170516 16 360 3.2 17.7 0.00 0.43 0.43 91 1007.3
20260506170017 16 360 6.4 17.7 0.00 0.43 0.43 91 1007.3
20260506165517 16 360 4.8 12.9 0.00 0.43 0.43 91 1007.3
20260506165017 16 360 4.8 16.1 0.00 0.43 0.43 91 1007.2
20260506164517 16 360 8.0 16.1 0.00 0.43 0.43 91 1007.3
20260506164018 16 194 4.8 16.1 0.00 0.43 0.43 91 1007.1
20260506163516 16 360 3.2 17.7 0.00 0.43 0.43 92 1007.1
20260506163022 16 360 6.4 16.1 0.00 0.43 0.43 92 1007.1
20260506162516 16 193 6.4 16.1 0.00 0.43 0.43 92 1007.2
20260506162017 16 231 3.2 11.3 0.00 0.43 0.43 92 1007.3
20260506161516 16 210 4.8 11.3 0.00 0.43 0.43 92 1007.5
20260506161018 16 186 4.8 12.9 0.03 0.43 0.43 92 1007.4
20260506160514 16 360 3.2 16.1 0.05 0.43 0.43 92 1007.5
20260506160016 16 182 4.8 16.1 0.08 0.43 0.43 92 1007.4
20260506155514 16 204 4.8 11.3 0.08 0.43 0.43 93 1007.3
20260506155014 16 193 4.8 16.1 0.10 0.43 0.43 93 1007.3
20260506154514 16 199 3.2 19.3 0.13 0.43 0.43 93 1007.5
20260506154014 16 360 8.0 19.3 0.13 0.43 0.43 93 1007.2
20260506153515 16 167 4.8 14.5 0.13 0.43 0.43 93 1007.1
20260506153021 16 360 3.2 11.3 0.15 0.43 0.43 94 1007.2
20260506152514 16 360 3.2 14.5 0.18 0.43 0.43 94 1006.8
20260506152013 16 360 4.8 14.5 0.18 0.43 0.43 93 1006.9
20260506151513 16 175 4.8 12.9 0.20 0.43 0.43 93 1007.1
20260506151012 16 360 4.8 11.3 0.18 0.41 0.41 93 1007.5
20260506150512 16 360 3.2 11.3 0.15 0.38 0.38 93 1007.8
20260506150016 16 360 3.2 11.3 0.13 0.36 0.36 93 1008.0
20260506145514 16 360 3.2 11.3 0.10 0.33 0.33 93 1008.2
20260506145012 16 360 3.2 11.3 0.10 0.33 0.33 93 1008.2
20260506144514 16 360 4.8 11.3 0.10 0.30 0.30 92 1008.2
20260506144011 16 360 3.2 11.3 0.10 0.30 0.30 92 1008.3
20260506143511 16 360 3.2 11.3 0.13 0.30 0.30 92 1008.2
20260506143021 16 360 4.8 12.9 0.13 0.28 0.28 92 1008.2
20260506142511 16 360 3.2 16.1 0.10 0.25 0.25 91 1008.0
20260506142009 16 360 3.2 16.1 0.15 0.25 0.25 91 1007.9
20260506141510 16 360 3.2 20.9 0.15 0.23 0.23 91 1007.7
20260506141010 16 360 6.4 24.1 0.18 0.23 0.23 91 1007.6
20260506140509 16 360 9.7 24.1 0.18 0.23 0.23 91 1007.7
20260506140016 16 360 8.0 16.1 0.18 0.23 0.23 91 1007.7
20260506135507 16 360 6.4 17.7 0.18 0.23 0.23 91 1007.7
20260506135008 15 360 8.0 19.3 0.15 0.20 0.20 91 1007.6
20260506134507 15 360 6.4 19.3 0.18 0.20 0.20 90 1007.6
20260506134007 16 360 3.2 20.9 0.18 0.20 0.20 90 1007.7
20260506133508 16 360 4.8 20.9 0.15 0.18 0.18 89 1007.7
20260506133006 16 360 3.2 14.5 0.15 0.15 0.15 88 1007.8
20260506132506 16 360 3.2 14.5 0.13 0.13 0.13 88 1007.7
20260506132003 16 360 3.2 12.9 0.10 0.10 0.10 87 1007.8
20260506131507 16 360 3.2 12.9 0.08 0.08 0.08 86 1007.9
20260506131003 16 189 3.2 11.3 0.05 0.05 0.05 86 1008.0
20260506130601 16 360 3.2 8.0 0.05 0.05 0.05 85 1008.0
20260506130122 16 360 1.6 8.0 0.05 0.05 0.05 85 1007.8
20260506125600 16 360 3.2 8.0 0.05 0.05 0.05 85 1007.8
20260506125100 16 360 3.2 14.5 0.05 0.05 0.05 84 1007.9
20260506124600 16 360 4.8 14.5 0.03 0.03 0.03 83 1007.9
20260506124059 17 360 3.2 19.3 0.03 0.03 0.03 83 1008.0
20260506123558 17 360 6.4 19.3 0.03 0.03 0.03 81 1008.0
20260506123058 17 360 3.2 12.9 0.00 0.00 0.00 80 1008.0
20260506122556 17 197 6.4 17.7 0.00 0.00 0.00 79 1008.1
20260506122056 17 187 4.8 17.7 0.00 0.00 0.00 79 1008.2
20260506121556 17 206 3.2 14.5 0.00 0.00 0.00 79 1008.3
20260506121055 17 248 4.8 14.5 0.00 0.00 0.00 78 1008.4
20260506120555 17 214 3.2 12.9 0.00 0.00 0.00 78 1008.3
20260506120053 17 197 4.8 14.5 0.00 0.00 0.00 77 1008.3
20260506115555 17 196 3.2 14.5 0.00 0.00 0.00 76 1008.2
20260506115051 17 257 1.6 12.9 0.00 0.00 0.00 76 1008.0
20260506114558 17 203 4.8 12.9 0.00 0.00 0.00 76 1008.0
20260506114051 17 229 4.8 12.9 0.00 0.00 0.00 76 1007.9
20260506113551 17 190 6.4 12.9 0.00 0.00 0.00 75 1007.8
20260506113050 17 219 1.6 11.3 0.00 0.00 0.00 75 1007.7
20260506112549 17 205 6.4 11.3 0.00 0.00 0.00 74 1007.7
20260506112050 18 222 4.8 19.3 0.00 0.00 0.00 73 1007.6
20260506111548 18 265 6.4 20.9 0.00 0.00 0.00 71 1007.7
20260506111048 18 216 4.8 20.9 0.00 0.00 0.00 70 1007.7
20260506110547 18 197 4.8 12.9 0.00 0.00 0.00 70 1007.5
20260506110047 18 207 3.2 12.9 0.00 0.00 0.00 70 1007.5
20260506105546 18 204 4.8 22.5 0.00 0.00 0.00 70 1007.4
20260506105046 18 196 6.4 22.5 0.00 0.00 0.00 69 1007.3
20260506104608 18 213 6.4 19.3 0.00 0.00 0.00 69 1007.2
20260506104045 18 205 6.4 19.3 0.00 0.00 0.00 69 1007.1
20260506103544 18 184 4.8 11.3 0.00 0.00 0.00 68 1007.1
20260506103044 18 242 4.8 19.3 0.00 0.00 0.00 68 1007.1
20260506102544 18 194 6.4 19.3 0.00 0.00 0.00 67 1007.2
20260506102043 18 203 4.8 19.3 0.00 0.00 0.00 67 1007.1
20260506101548 18 182 6.4 19.3 0.00 0.00 0.00 66 1007.0
20260506101042 18 202 8.0 16.1 0.00 0.00 0.00 66 1007.0
20260506100540 18 187 6.4 16.1 0.00 0.00 0.00 66 1006.9
20260506100044 18 205 4.8 27.4 0.00 0.00 0.00 65 1006.9
20260506095539 18 187 9.7 27.4 0.00 0.00 0.00 65 1006.9
20260506095040 19 163 6.4 14.5 0.00 0.00 0.00 65 1006.8
20260506094539 19 198 4.8 19.3 0.00 0.00 0.00 64 1006.8
20260506094037 19 197 6.4 19.3 0.00 0.00 0.00 64 1006.9
20260506093537 19 189 6.4 16.1 0.00 0.00 0.00 64 1006.8
20260506093036 19 200 4.8 19.3 0.00 0.00 0.00 64 1006.8
20260506092536 19 194 6.4 19.3 0.00 0.00 0.00 63 1006.8
20260506092036 19 218 4.8 17.7 0.00 0.00 0.00 63 1006.8
20260506091535 19 196 6.4 20.9 0.00 0.00 0.00 63 1006.8
20260506091037 19 203 6.4 19.3 0.00 0.00 0.00 62 1007.0
20260506090533 19 163 8.0 19.3 0.00 0.00 0.00 62 1007.1
20260506090041 19 196 8.0 22.5 0.00 0.00 0.00 62 1007.1
20260506085532 19 220 6.4 22.5 0.00 0.00 0.00 62 1007.3
20260506085030 20 188 4.8 17.7 0.00 0.00 0.00 61 1007.1
20260506084533 20 218 6.4 20.9 0.00 0.00 0.00 61 1007.2
20260506084033 20 208 6.4 20.9 0.00 0.00 0.00 61 1007.2
20260506083530 20 190 4.8 20.9 0.00 0.00 0.00 61 1007.2
20260506083038 20 198 6.4 16.1 0.00 0.00 0.00 61 1007.2
20260506082528 20 219 3.2 14.5 0.00 0.00 0.00 61 1007.2
20260506082029 20 167 4.8 19.3 0.00 0.00 0.00 61 1007.3
20260506081527 20 230 4.8 20.9 0.00 0.00 0.00 60 1007.3
20260506081029 20 200 4.8 16.1 0.00 0.00 0.00 60 1007.3
20260506080526 20 196 3.2 16.1 0.00 0.00 0.00 60 1007.2